Home > Weather > Samsun > Past weeks

Flag for Turkey Weather for the Past 2 Weeks in Samsun, Turkey

Now
54 °F

Clear.


Feels Like: 49 °F
Forecast: 48 / 60 °F
Wind: 14 mph from South

Location: Samsun / Carsamba

Current Time: Feb 11, 2016 at 12:54:03 AM

Latest Report: Feb 10, 2016 at 11:50 PM


Visibility: 10 mi

Pressure: 29.92 "Hg

Humidity: 33%

Dew point: 25 °F

Location of SamsunLocation

Historic Weather in Samsun — Graph

°F

Samsun Temperature Yesterday

Maximum temperature yesterday: 61 °F (at 12:50 PM)
Minimum temperature yesterday: 28 °F (at 3:50 AM)
Average temperature yesterday: 46 °F

High & Low Weather Summary for the Past Weeks

 TemperatureHumidityPressure
High72 °F (Feb 4, 1:50 PM)100% (Jan 29, 5:50 PM)30.48 "Hg (Jan 29, 5:50 PM)
Low25 °F (Jan 27, 5:50 AM)19% (Feb 4, 3:50 PM)29.74 "Hg (Feb 5, 2:50 PM)
Average46 °F64%30.20 "Hg
* Reported Jan 26 10:50 PM — Feb 10 10:50 PM, Samsun, Weather by CustomWeather, © 2016

Note: Actual official high and low records may vary slightly from our data, if they occured in-between our weather recording intervals... More about our weather records

Advertising

Samsun Weather History for the Previous 24 Hours

 ConditionsComfort  
Time TempWeatherWind HumidityBarometerVisibility
10:50 PM
Wed, Feb 10
54 °FClear.12 mph33%29.95 "Hg10 mi
9:50 PM55 °FClear.14 mph31%29.95 "Hg10 mi
8:50 PM48 °FClear.9 mph43%29.98 "Hg10 mi
7:50 PM46 °FClear.8 mph50%29.98 "Hg10 mi
6:50 PM45 °FClear.5 mph71%29.98 "Hg10 mi
5:50 PM50 °FClear.6 mph47%30.01 "Hg10 mi
4:50 PM55 °FSunny.6 mph28%30.01 "Hg10 mi
3:50 PM59 °FSunny.9 mph27%30.01 "Hg10 mi
2:50 PM61 °FSunny.10 mph23%30.01 "Hg10 mi
1:50 PM61 °FPassing clouds.10 mph22%30.01 "HgN/A
12:50 PM61 °FPassing clouds.12 mph22%30.04 "HgN/A
11:50 AM59 °FSunny.5 mph27%30.07 "Hg10 mi
10:50 AM55 °FSunny.6 mph33%30.09 "Hg10 mi
9:50 AM55 °FPassing clouds.6 mph28%30.09 "HgN/A
8:50 AM50 °FSunny.6 mph47%30.12 "Hg10 mi
7:50 AM41 °FSunny.6 mph57%30.15 "Hg10 mi
6:50 AM34 °FSunny.5 mph70%30.15 "Hg10 mi
5:50 AM28 °FClear.5 mph86%30.15 "Hg10 mi
4:50 AM30 °FClear.1 mph93%30.15 "Hg10 mi
3:50 AM28 °FClear.5 mph93%30.15 "Hg10 mi
2:50 AM30 °FClear.7 mph93%30.15 "Hg10 mi
1:50 AM30 °FClear.3 mph100%30.18 "Hg10 mi
12:50 AM32 °FClear.2 mph93%30.18 "Hg10 mi
Weather by CustomWeather, © 2016

See weather overviewHow to use our weather pages